| time (UTC) | temp F | wind direction | speed MPH | gust MPH | rain 1hr in | rain 24hr in | rain mn in | humidity % | barometer mb |
| 20260906191547 | 0 | 0.0 | 0.0 | 0.00 | 0.00 | 0.00 | 1011.0 | ||
| 20260906190004 | 0 | 0.0 | 0.0 | 0.00 | 0.00 | 0.00 | 1010.9 | ||
| 20260906184525 | 0 | 0.0 | 0.0 | 0.00 | 0.00 | 0.00 | 1010.6 | ||
| 20260906183014 | 81 | 119 | 2.0 | 6.0 | 0.00 | 0.00 | 0.00 | 83 | 1010.4 |
| 20260906181522 | 80 | 92 | 2.0 | 5.0 | 0.00 | 0.00 | 0.00 | 85 | 1010.9 |
| 20260906180040 | 80 | 127 | 4.0 | 7.0 | 0.00 | 0.00 | 0.00 | 86 | 1011.5 |
| 20260906174602 | 77 | 116 | 5.0 | 8.0 | 0.00 | 0.00 | 0.00 | 91 | 1011.4 |
| 20260906173121 | 76 | 118 | 5.0 | 8.0 | 0.00 | 0.00 | 0.00 | 94 | 1011.5 |
| 20260906171524 | 75 | 119 | 5.0 | 8.0 | 0.00 | 0.00 | 0.00 | 95 | 1011.8 |
| 20260906170034 | 74 | 148 | 4.0 | 7.0 | 0.00 | 0.00 | 0.00 | 95 | 1011.8 |
| 20260906164546 | 74 | 128 | 3.0 | 7.0 | 0.00 | 0.00 | 0.00 | 95 | 1011.7 |
| 20260906163042 | 74 | 154 | 1.0 | 6.0 | 0.00 | 0.00 | 0.00 | 95 | 1011.8 |
| 20260906161539 | 73 | 68 | 3.0 | 5.0 | 0.00 | 0.00 | 0.00 | 95 | 1011.7 |
| 20260906160040 | 73 | 113 | 3.0 | 6.0 | 0.00 | 0.00 | 0.00 | 96 | 1011.6 |
| 20260906154556 | 73 | 129 | 3.0 | 7.0 | 0.00 | 0.00 | 0.00 | 95 | 1011.5 |
| 20260906153110 | 73 | 98 | 2.0 | 5.0 | 0.00 | 0.00 | 0.00 | 95 | 1011.5 |
| 20260906151547 | 73 | 124 | 2.0 | 5.0 | 0.00 | 0.00 | 0.00 | 95 | 1011.7 |
| 20260906150057 | 72 | 96 | 2.0 | 5.0 | 0.00 | 0.00 | 0.00 | 95 | 1011.7 |
| 20260906144518 | 72 | 114 | 2.0 | 6.0 | 0.00 | 0.00 | 0.00 | 95 | 1011.5 |
| 20260906143108 | 72 | 114 | 4.0 | 6.0 | 0.00 | 0.00 | 0.00 | 95 | 1011.2 |
| 20260906141526 | 72 | 101 | 3.0 | 7.0 | 0.00 | 0.00 | 0.00 | 95 | 1011.4 |
| 20260906140042 | 72 | 133 | 3.0 | 7.0 | 0.00 | 0.00 | 0.00 | 95 | 1011.4 |
| 20260906134553 | 72 | 118 | 3.0 | 7.0 | 0.00 | 0.00 | 0.00 | 95 | 1011.7 |
| 20260906133020 | 72 | 147 | 3.0 | 6.0 | 0.00 | 0.00 | 0.00 | 95 | 1011.8 |
| 20260906131537 | 72 | 128 | 2.0 | 5.0 | 0.00 | 0.00 | 0.00 | 95 | 1011.8 |
| 20260906130045 | 71 | 86 | 1.0 | 4.0 | 0.00 | 0.00 | 0.00 | 95 | 1011.8 |
| 20260906124528 | 71 | 117 | 1.0 | 4.0 | 0.00 | 0.00 | 0.00 | 95 | 1011.6 |
| 20260906123043 | 71 | 99 | 1.0 | 3.0 | 0.00 | 0.00 | 0.00 | 95 | 1011.4 |
| 20260906121613 | 71 | 99 | 2.0 | 4.0 | 0.00 | 0.00 | 0.00 | 95 | 1011.2 |
| 20260906120131 | 71 | 113 | 2.0 | 5.0 | 0.00 | 0.00 | 0.00 | 95 | 1011.1 |
| 20260906114534 | 71 | 123 | 3.0 | 6.0 | 0.00 | 0.00 | 0.00 | 95 | 1011.0 |
| 20260906113058 | 71 | 82 | 0.0 | 5.0 | 0.00 | 0.00 | 0.00 | 95 | 1011.0 |
| 20260906111609 | 71 | 81 | 1.0 | 5.0 | 0.00 | 0.00 | 0.00 | 95 | 1011.1 |
| 20260906110006 | 71 | 81 | 3.0 | 6.0 | 0.00 | 0.00 | 0.00 | 95 | 1011.0 |
| 20260906104553 | 71 | 119 | 1.0 | 3.0 | 0.00 | 0.00 | 0.00 | 95 | 1011.1 |
| 20260906103054 | 71 | 131 | 2.0 | 5.0 | 0.00 | 0.00 | 0.00 | 95 | 1011.1 |
| 20260906101605 | 71 | 101 | 3.0 | 5.0 | 0.00 | 0.00 | 0.00 | 95 | 1011.2 |
| 20260906100010 | 71 | 131 | 3.0 | 6.0 | 0.00 | 0.00 | 0.00 | 94 | 1011.2 |
| 20260906094524 | 71 | 113 | 3.0 | 5.0 | 0.00 | 0.00 | 0.00 | 94 | 1011.2 |
| 20260906093119 | 71 | 117 | 2.0 | 6.0 | 0.00 | 0.00 | 0.00 | 94 | 1011.1 |
| 20260906091543 | 71 | 123 | 3.0 | 5.0 | 0.00 | 0.00 | 0.00 | 94 | 1011.0 |
| 20260906090039 | 71 | 119 | 3.0 | 5.0 | 0.00 | 0.00 | 0.00 | 94 | 1011.1 |
| 20260906084551 | 71 | 127 | 3.0 | 5.0 | 0.00 | 0.00 | 0.00 | 94 | 1011.0 |
| 20260906083059 | 71 | 111 | 2.0 | 5.0 | 0.00 | 0.00 | 0.00 | 94 | 1010.9 |
| 20260906081600 | 71 | 136 | 3.0 | 6.0 | 0.00 | 0.00 | 0.00 | 94 | 1010.8 |
| 20260906080047 | 71 | 135 | 3.0 | 8.0 | 0.00 | 0.00 | 0.00 | 94 | 1010.7 |
| 20260906074546 | 71 | 124 | 3.0 | 7.0 | 0.00 | 0.00 | 0.00 | 94 | 1010.8 |
| 20260906073008 | 70 | 129 | 5.0 | 9.0 | 0.00 | 0.00 | 0.00 | 93 | 1010.4 |
| 20260906071521 | 70 | 100 | 3.0 | 8.0 | 0.00 | 0.00 | 0.00 | 93 | 1010.7 |
| 20260906070025 | 70 | 123 | 3.0 | 6.0 | 0.00 | 0.00 | 0.00 | 93 | 1010.9 |
| 20260906064534 | 70 | 128 | 3.0 | 7.0 | 0.00 | 0.00 | 0.00 | 93 | 1011.0 |
| 20260906063045 | 70 | 118 | 2.0 | 7.0 | 0.00 | 0.00 | 0.00 | 92 | 1010.9 |
| 20260906061600 | 70 | 155 | 5.0 | 8.0 | 0.00 | 0.00 | 0.00 | 92 | 1010.8 |
| 20260906054611 | 70 | 123 | 2.0 | 6.0 | 0.00 | 0.00 | 0.00 | 92 | 1011.4 |
| 20260906053023 | 70 | 124 | 3.0 | 6.0 | 0.00 | 0.00 | 0.00 | 91 | 1011.4 |
| 20260906051517 | 70 | 121 | 3.0 | 6.0 | 0.00 | 0.00 | 0.00 | 91 | 1011.3 |
| 20260906050028 | 69 | 121 | 3.0 | 5.0 | 0.00 | 0.00 | 0.00 | 90 | 1011.4 |
| 20260906044506 | 69 | 117 | 2.0 | 4.0 | 0.00 | 0.00 | 0.00 | 90 | 1011.5 |
| 20260906043015 | 70 | 113 | 1.0 | 5.0 | 0.00 | 0.00 | 0.00 | 89 | 1011.4 |
| 20260906041517 | 70 | 131 | 1.0 | 3.0 | 0.00 | 0.00 | 0.00 | 88 | 1011.3 |
| 20260906040016 | 70 | 84 | 2.0 | 4.0 | 0.00 | 0.00 | 0.00 | 87 | 1011.1 |
| 20260906034527 | 70 | 129 | 1.0 | 3.0 | 0.00 | 0.00 | 0.00 | 87 | 1010.7 |
| 20260906033028 | 71 | 114 | 2.0 | 4.0 | 0.00 | 0.00 | 0.00 | 86 | 1010.8 |
| 20260906031506 | 71 | 134 | 2.0 | 4.0 | 0.00 | 0.00 | 0.00 | 87 | 1011.0 |
| 20260906030021 | 71 | 134 | 1.0 | 3.0 | 0.00 | 0.00 | 0.00 | 86 | 1011.0 |
| 20260906024524 | 71 | 134 | 2.0 | 4.0 | 0.00 | 0.00 | 0.00 | 87 | 1010.6 |
| 20260906023044 | 71 | 134 | 2.0 | 3.0 | 0.00 | 0.00 | 0.00 | 86 | 1010.4 |
| 20260906021610 | 71 | 134 | 1.0 | 3.0 | 0.00 | 0.00 | 0.00 | 85 | 1010.2 |
| 20260906020107 | 72 | 109 | 1.0 | 3.0 | 0.00 | 0.00 | 0.00 | 84 | 1010.2 |
| 20260906014508 | 73 | 109 | 1.0 | 2.0 | 0.00 | 0.00 | 0.00 | 82 | 1010.1 |
| 20260906013042 | 74 | 109 | 1.0 | 4.0 | 0.00 | 0.00 | 0.00 | 80 | 1010.2 |
| 20260906011606 | 75 | 84 | 1.0 | 3.0 | 0.00 | 0.00 | 0.00 | 78 | 1010.1 |
| 20260906010020 | 76 | 115 | 2.0 | 8.0 | 0.00 | 0.00 | 0.00 | 75 | 1010.0 |
| 20260906004507 | 77 | 110 | 4.0 | 8.0 | 0.00 | 0.00 | 0.00 | 74 | 1010.0 |
| 20260906003109 | 78 | 97 | 2.0 | 6.0 | 0.00 | 0.00 | 0.00 | 72 | 1009.9 |
| 20260906001511 | 80 | 146 | 6.0 | 13.0 | 0.00 | 0.00 | 0.00 | 69 | 1009.7 |
| 20260906000035 | 81 | 96 | 5.0 | 13.0 | 0.00 | 0.00 | 0.00 | 68 | 1009.4 |
| 20260905234529 | 82 | 127 | 6.0 | 13.0 | 0.00 | 0.00 | 0.00 | 67 | 1009.4 |
| 20260905233028 | 82 | 92 | 6.0 | 14.0 | 0.00 | 0.00 | 0.00 | 66 | 1009.4 |
| 20260905231540 | 83 | 97 | 5.0 | 13.0 | 0.00 | 0.00 | 0.00 | 66 | 1009.4 |
| 20260905230018 | 0 | 0.0 | 0.0 | 0.00 | 0.00 | 0.00 | 1009.4 | ||
| 20260905224559 | 0 | 0.0 | 0.0 | 0.00 | 0.00 | 0.00 | 1009.3 | ||
| 20260905223003 | 0 | 0.0 | 0.0 | 0.00 | 0.00 | 0.00 | 1009.1 | ||
| 20260905221525 | 0 | 0.0 | 0.0 | 0.00 | 0.00 | 0.00 | 1008.9 | ||
| 20260905220040 | 0 | 0.0 | 0.0 | 0.00 | 0.00 | 0.00 | 1008.8 | ||
| 20260905214545 | 0 | 0.0 | 0.0 | 0.00 | 0.00 | 0.00 | 1009.0 | ||
| 20260905213019 | 0 | 0.0 | 0.0 | 0.00 | 0.00 | 0.00 | 1009.1 | ||
| 20260905211642 | 0 | 0.0 | 0.0 | 0.00 | 0.00 | 0.00 | 1009.2 | ||
| 20260905210058 | 0 | 0.0 | 0.0 | 0.00 | 0.00 | 0.00 | 1009.2 | ||
| 20260905204605 | 0 | 0.0 | 0.0 | 0.00 | 0.00 | 0.00 | 1009.3 | ||
| 20260905203016 | 0 | 0.0 | 0.0 | 0.00 | 0.00 | 0.00 | 1009.1 | ||
| 20260905201607 | 0 | 0.0 | 0.0 | 0.00 | 0.00 | 0.00 | 1009.2 | ||
| 20260905194558 | 0 | 0.0 | 0.0 | 0.00 | 0.00 | 0.00 | 1009.4 | ||
| 20260905193001 | 85 | 126 | 4.0 | 16.0 | 0.00 | 0.00 | 0.00 | 60 | 1009.2 |